Location: S�tio Afonso Gruber
(26.1760°S, 49.5250°W)
Time: 20:16:14
(UTC+00:00)

GOES 2 Rocket - Visible Passes

Search period start: 29 September 2020 00:00
Search period end: 09 October 2020 00:00
Orbit: 569 x 1674 km, 28.4° (Epoch: 29 September)

Date Brightness Start Highest point End Pass type
(mag) Time Alt. Az. Time Alt. Az. Time Alt. Az.
29 Sep 6.1 05:21:47 26° E 05:21:47 26° E 05:25:34 10° E visible
29 Sep 4.7 07:09:27 46° W 07:12:26 83° S 07:22:25 10° E visible
30 Sep 6.9 04:41:20 11° E 04:41:20 11° E 04:41:35 10° E visible
30 Sep 4.4 06:28:59 87° S 06:28:59 87° S 06:38:26 10° E visible
30 Sep 5.0 08:16:39 11° W 08:24:58 79° S 08:35:22 10° E visible
01 Oct 5.3 05:48:32 45° E 05:48:32 45° E 05:54:27 10° ESE visible
01 Oct 4.8 07:36:11 25° W 07:41:21 77° S 07:51:22 10° E visible
02 Oct 6.3 05:08:05 20° E 05:08:05 20° E 05:10:32 10° ESE visible
02 Oct 4.5 06:55:45 52° WSW 06:57:53 76° S 07:07:20 10° E visible
03 Oct 4.5 06:15:19 70° SE 06:15:19 70° SE 06:23:20 10° E visible
03 Oct 4.8 08:02:59 13° WSW 08:10:16 86° S 08:20:19 10° E visible
04 Oct 5.6 05:34:56 33° ESE 05:34:56 33° ESE 05:39:23 10° E visible
04 Oct 4.6 07:22:36 30° WSW 07:26:48 82° S 07:36:18 10° E visible
05 Oct 6.6 04:54:36 14° ESE 04:54:36 14° ESE 04:55:33 10° E visible
05 Oct 4.2 06:42:16 64° WSW 06:43:29 78° S 06:52:18 10° E visible
06 Oct 4.8 06:01:58 54° ESE 06:01:58 54° ESE 06:08:21 10° E visible
06 Oct 4.6 07:49:39 17° W 07:55:36 77° NNW 08:05:03 10° ENE visible
07 Oct 6.0 05:21:44 23° E 05:21:44 23° E 05:24:28 10° E visible
07 Oct 4.3 07:09:25 40° W 07:12:17 83° NNW 07:21:08 10° ENE visible
08 Oct 4.0 06:29:16 86° ENE 06:29:16 86° ENE 06:37:15 10° ENE visible
08 Oct 5.0 08:17:22 10° W 08:24:17 48° NNW 08:33:08 10° NE visible
